Location: The Saddle
(36.8333°N, 80.3417°W)
Time: 00:42:38
(UTC-04:00)

SEEDS - Pass Details

Date: 20 March 2026
Orbit: 470 x 477 km, 97.8° (Epoch: 20 April)

Event Time Altitude Azimuth Distance (km) Brightness Sun altitude
Rises 05:56:38 0° 28° (NNE) 2,540 ? -18.3°
Maximum altitude 06:01:49 21° 96° (E) 1,124 ? -17.3°
Drops below altitude 10° 06:04:32 10° 147° (SSE) 1,637 ? -16.8°
Sets 06:06:56 0° 164° (SSE) 2,507 ? -16.3°
